Weather in Kanyakumari

India     8°05′25″N   77°32′35″E
temp.,
°C
wind,
m/s
gust,
m/s
humid.,
%
clouds,
%
prec.,
mm/h
press.,
hPa
HPBL,
m
21 january, thu
thu2123:30+27nne237243 0.0 1012391
02:30+27nne68761 0.0 1010689
05:30+27nne57782 0.1 1011575
08:30+27nne677716 0.0 1012557
11:30+28ne68778 0.1 1012715
14:30+28ene67787 0.1 1009608
17:30+28ne237827 0.4 1009424
20:30+27nw237862 0.3 1011413
22 january, fri
fri2223:30+27nne228060 0.8 1011216
02:30+27ne587765 0.2 1009630
05:30+27ne797774 0.3 1010566
08:30+27ne9117464 0.1 1012678
11:30+28ne9117448 0.1 1012794
14:30+28ene9107442 0.0 1008498
17:30+28e897630 0.0 1008450
20:30+27ne68770 0.0 1010496
23 january, sat
sat2323:30+27nne577413 0.1 1011515
02:30+27ne7107925 0.1 1009668
05:30+26ne9118112 0.1 1009764
08:30+26ne1012790 0.0 1012883
11:30+27ne1012720 0.0 10121124
14:30+28ene911710 0.0 10091001
17:30+28ene911710 0.0 1009688
20:30+27ne897360 0.0 1010553
24 january, sun
sun2423:30+27ne797080 0.0 1011537
02:30+26ne9127337 0.0 1010726
05:30+25ne10117550 0.0 1010711
08:30+25ne10127583 0.0 1013753
11:30+27ne11126871 0.0 1012916
14:30+28ene9126594 0.0 1009698
17:30+28ne8116997 0.0 1009544
20:30+26ne8107498 0.0 1011572
25 january, mon
mon2523:30+26ne8107887 0.0 1012631
02:30+25ne91175100 0.0 1010706
05:30+25ne9117397 0.0 1011702
08:30+25ne10117381 0.0 1013718
11:30+26ne10116788 0.0 10131044
14:30+28ene10126367 0.0 1010859
17:30+28ne576758 0.0 1010466
20:30+26ne6772100 0.0 1012571